| time (UTC) | temp C | wind direction | speed KPH | gust KPH | rain 1hr cm | rain 24hr cm | rain mn cm | humidity % | barometer mb |
| 20260504201602 | 26 | 253 | 3.2 | 19.3 | 0.00 | 0.00 | 0.00 | 42 | 989.5 |
| 20260504200058 | 26 | 278 | 6.4 | 22.5 | 0.00 | 0.00 | 0.00 | 42 | 989.7 |
| 20260504200004 | 26 | 143 | 4.8 | 22.5 | 0.00 | 0.00 | 0.00 | 43 | 989.7 |
| 20260504193059 | 26 | 265 | 8.0 | 22.5 | 0.00 | 0.00 | 0.00 | 43 | 990.1 |
| 20260504191622 | 26 | 165 | 6.4 | 16.1 | 0.00 | 0.00 | 0.00 | 45 | 990.1 |
| 20260504190109 | 26 | 245 | 4.8 | 30.6 | 0.00 | 0.00 | 0.00 | 45 | 990.4 |
| 20260504190001 | 26 | 189 | 4.8 | 30.6 | 0.00 | 0.00 | 0.00 | 47 | 990.4 |
| 20260504184606 | 26 | 237 | 8.0 | 22.5 | 0.00 | 0.00 | 0.00 | 45 | 990.4 |
| 20260504183058 | 26 | 239 | 8.0 | 17.7 | 0.00 | 0.00 | 0.00 | 47 | 990.5 |
| 20260504181604 | 26 | 95 | 3.2 | 14.5 | 0.00 | 0.00 | 0.00 | 48 | 990.6 |
| 20260504180059 | 25 | 222 | 4.8 | 27.4 | 0.00 | 0.00 | 0.00 | 49 | 991.1 |
| 20260504180003 | 25 | 245 | 8.0 | 27.4 | 0.00 | 0.00 | 0.00 | 49 | 991.1 |
| 20260504174558 | 25 | 293 | 9.7 | 19.3 | 0.00 | 0.00 | 0.00 | 50 | 991.2 |
| 20260504173104 | 25 | 241 | 6.4 | 27.4 | 0.00 | 0.00 | 0.00 | 51 | 991.3 |
| 20260504171604 | 25 | 179 | 4.8 | 25.7 | 0.00 | 0.00 | 0.00 | 51 | 991.6 |
| 20260504140106 | 19 | 234 | 8.0 | 14.5 | 0.00 | 0.00 | 0.00 | 67 | 993.1 |
| 20260504081558 | 7 | 247 | 0.0 | 0.0 | 0.00 | 0.00 | 0.00 | 94 | 992.3 |
| 20260504060106 | 10 | 218 | 0.0 | 3.2 | 0.00 | 0.00 | 0.00 | 88 | 993.4 |
| 20260504050120 | 9 | 230 | 0.0 | 0.0 | 0.00 | 0.00 | 0.00 | 88 | 993.6 |
| 20260504050003 | 9 | 231 | 0.0 | 0.0 | 0.00 | 0.00 | 0.00 | 88 | 993.6 |
| 20260504044600 | 10 | 231 | 0.0 | 0.0 | 0.00 | 0.00 | 0.00 | 87 | 993.7 |
| 20260504043108 | 10 | 243 | 0.0 | 0.0 | 0.00 | 0.00 | 0.00 | 87 | 993.9 |
| 20260504041601 | 10 | 243 | 0.0 | 0.0 | 0.00 | 0.00 | 0.00 | 86 | 994.0 |
| 20260504040111 | 11 | 243 | 0.0 | 3.2 | 0.00 | 0.00 | 0.00 | 85 | 994.0 |
| 20260504040006 | 11 | 243 | 0.0 | 3.2 | 0.00 | 0.00 | 0.00 | 85 | 994.0 |
| 20260504034615 | 11 | 210 | 0.0 | 3.2 | 0.00 | 0.00 | 0.00 | 83 | 994.1 |
| 20260504033102 | 11 | 177 | 0.0 | 0.0 | 0.00 | 0.00 | 0.00 | 82 | 994.1 |
| 20260504031613 | 11 | 181 | 0.0 | 3.2 | 0.00 | 0.00 | 0.00 | 81 | 994.1 |
| 20260504030115 | 11 | 191 | 0.0 | 3.2 | 0.00 | 0.00 | 0.00 | 81 | 994.2 |
| 20260504030002 | 11 | 114 | 0.0 | 1.6 | 0.00 | 0.00 | 0.00 | 81 | 994.2 |
| 20260504024600 | 11 | 119 | 0.0 | 3.2 | 0.00 | 0.00 | 0.00 | 80 | 994.1 |
| 20260504023103 | 11 | 212 | 0.0 | 0.0 | 0.00 | 0.00 | 0.00 | 78 | 994.3 |
| 20260504023002 | 11 | 213 | 0.0 | 0.0 | 0.00 | 0.00 | 0.00 | 78 | 994.3 |
| 20260504021608 | 12 | 212 | 0.0 | 0.0 | 0.00 | 0.00 | 0.00 | 77 | 994.3 |
| 20260504020059 | 12 | 212 | 0.0 | 0.0 | 0.00 | 0.00 | 0.00 | 75 | 994.2 |
| 20260504020002 | 12 | 213 | 0.0 | 0.0 | 0.00 | 0.00 | 0.00 | 75 | 994.2 |
| 20260504014559 | 13 | 213 | 0.0 | 1.6 | 0.00 | 0.00 | 0.00 | 71 | 994.0 |
| 20260504013059 | 14 | 212 | 0.0 | 0.0 | 0.00 | 0.00 | 0.00 | 70 | 993.7 |
| 20260504011559 | 15 | 212 | 0.0 | 0.0 | 0.00 | 0.00 | 0.00 | 67 | 993.5 |
| 20260504010059 | 15 | 219 | 0.0 | 1.6 | 0.00 | 0.00 | 0.00 | 64 | 993.5 |
| 20260504010001 | 15 | 219 | 0.0 | 1.6 | 0.00 | 0.00 | 0.00 | 64 | 993.5 |
| 20260504004559 | 16 | 220 | 0.0 | 3.2 | 0.00 | 0.00 | 0.00 | 63 | 993.4 |
| 20260504003058 | 17 | 285 | 0.0 | 3.2 | 0.00 | 0.00 | 0.00 | 59 | 993.3 |
| 20260504001559 | 17 | 215 | 0.0 | 4.8 | 0.00 | 0.00 | 0.00 | 56 | 993.4 |
| 20260504000137 | 18 | 212 | 1.6 | 6.4 | 0.00 | 0.00 | 0.00 | 54 | 993.6 |
| 20260504000003 | 18 | 214 | 1.6 | 3.2 | 0.00 | 0.00 | 0.00 | 55 | 993.6 |
| 20260503234603 | 18 | 256 | 0.0 | 4.8 | 0.00 | 0.00 | 0.00 | 53 | 993.8 |
| 20260503233100 | 20 | 256 | 0.0 | 11.3 | 0.00 | 0.00 | 0.00 | 47 | 993.9 |
| 20260503231559 | 20 | 228 | 0.0 | 12.9 | 0.00 | 0.00 | 0.00 | 45 | 994.1 |
| 20260503230001 | 20 | 268 | 1.6 | 14.5 | 0.00 | 0.00 | 0.00 | 46 | 994.1 |
| 20260503224559 | 20 | 251 | 6.4 | 17.7 | 0.00 | 0.00 | 0.00 | 40 | 994.4 |
| 20260503223059 | 21 | 281 | 6.4 | 17.7 | 0.00 | 0.00 | 0.00 | 37 | 994.5 |
| 20260503221602 | 21 | 248 | 1.6 | 11.3 | 0.00 | 0.00 | 0.00 | 41 | 994.5 |
| 20260503220059 | 21 | 291 | 6.4 | 12.9 | 0.00 | 0.00 | 0.00 | 42 | 994.6 |
| 20260503220005 | 21 | 253 | 6.4 | 12.9 | 0.00 | 0.00 | 0.00 | 41 | 994.6 |
| 20260503214558 | 21 | 257 | 3.2 | 16.1 | 0.00 | 0.00 | 0.00 | 42 | 994.8 |
| 20260503213059 | 21 | 247 | 1.6 | 14.5 | 0.00 | 0.00 | 0.00 | 39 | 994.9 |
| 20260503211604 | 21 | 308 | 1.6 | 17.7 | 0.00 | 0.00 | 0.00 | 38 | 995.2 |
| 20260503210059 | 21 | 285 | 4.8 | 17.7 | 0.00 | 0.00 | 0.00 | 42 | 995.4 |
| 20260503210001 | 21 | 251 | 1.6 | 14.5 | 0.00 | 0.00 | 0.00 | 41 | 995.4 |
| 20260503204558 | 21 | 260 | 8.0 | 19.3 | 0.00 | 0.00 | 0.00 | 39 | 995.5 |
| 20260503203109 | 21 | 199 | 4.8 | 19.3 | 0.00 | 0.00 | 0.00 | 40 | 995.8 |